[[{"header":{"parameterUnit":"m.s-1","parameterCategory":1,"la1":30.2992,"la2":30.254,"lo1":-89.0895,"lo2":-89.0443,"dy":0.0025,"dx":0.0025,"nx":19,"ny":19,"refTime":"2026-04-19T09:00:00:Z","depth":0,"parameterNumber":2,"parameterNumberName":"U-component_of_WINDS"},"data":[0,0,0,-0.9996,-0.9996,-1.0,-1.0,-1.0022,-1.0022,0,0,0,0,0,0,0,0,0,0,0,-1.0005,-1.0006,-0.9996,-0.9996,-1.0,-1.0,-1.0022,-1.0022,0,0,0,0,0,0,0,0,0,0,0,-1.0005,-1.0006,-1.0006,-0.9997,-1.0,-1.0,-1.0022,-1.0013,0,0,0,0,0,0,0,0,0,0,-1.0007,-1.0025,-1.0005,-1.0006,-0.9997,-1.0,-1.0,-1.0012,-1.0014,-1.0028,0,-1.0042,0,-1.0033,-1.0025,-1.0025,0,0,0,-0.9989,-1.0024,-1.0015,-1.0006,-0.9997,-1.0,-0.9996,-1.0013,-1.0014,-1.0029,-1.0042,-1.0043,-1.0033,-1.0025,-1.0025,-1.0128,-1.0129,0,0,-0.9989,-1.0012,-1.0015,-1.0017,-1.0017,-0.9996,-0.9997,-1.0013,-1.003,-1.0042,-1.0043,-1.0033,-1.0025,-1.0026,-1.0128,-1.0129,0,0,0,-0.9993,-1.0012,-1.0002,-1.0016,-1.0016,-0.9997,-0.9997,-1.0029,-1.0024,-1.0043,-1.0034,-1.0026,-1.0026,-1.0127,-1.0128,-1.0191,0,0,0,-0.9993,-1.0014,-1.0003,-1.0017,-1.0016,-1.0022,-1.0012,-1.0023,-1.0024,-1.0034,-1.0026,-1.0026,-1.0126,-1.0127,-1.0187,-1.0218,0,0,0,-1.0002,-1.0015,-1.0019,-1.0018,-1.002,-1.0021,-1.0017,-1.0022,-1.0018,-1.0025,-1.0027,-1.0125,-1.0127,-1.0184,-1.0213,-1.0253,0,0,0,-1.0018,-1.0075,-1.002,-1.0081,-1.002,-1.006,-1.0017,-1.0045,-1.0058,-1.0026,-1.0126,-1.0128,-1.0183,-1.0209,-1.0249,-1.0292,-1.0311,0,0,-1.0103,-1.0087,-1.012,-1.0071,-1.0126,-1.0057,-1.0121,-1.0113,-1.0093,-1.0118,-1.012,-1.0189,-1.0212,-1.0252,-1.0408,-1.0424,0,0,0,-1.0155,-1.018,-1.019,-1.0203,-1.0196,-1.0193,-1.0172,-1.0168,-1.0188,-1.011,-1.0212,-1.0226,-1.0248,-1.0267,-1.0281,-1.0299,-1.0137,-1.0137,-1.0137,-1.0311,-1.0281,-1.0335,-1.0306,-1.0319,-1.0295,-1.0303,-1.0294,-1.0261,-1.0286,-1.0294,-1.0392,-1.0416,-1.0425,-1.0445,-1.0312,-1.0312,-1.0313,-1.0313,-1.0435,-1.0466,-1.0419,-1.0455,-1.0423,-1.0453,-1.0432,-1.0407,-1.0431,-1.0384,-1.0402,-1.0355,-1.0443,-1.0459,-1.0317,-1.0317,-1.0316,-1.0316,-1.0315,-1.0536,-1.0545,-1.0539,-1.0553,-1.0568,-1.0536,-1.056,-1.053,-1.0502,-1.052,-1.0526,-1.0525,-1.0521,-1.0524,-1.0525,-1.0525,-1.0525,-1.0526,-1.0526,-1.0644,-1.0634,-1.0658,-1.0655,-1.0658,-1.066,-1.0635,-1.0638,-1.0634,-1.061,-1.061,-1.0576,-1.0456,-1.0429,-1.0531,-1.053,-1.0529,-1.0529,-1.0529,-1.0785,-1.0747,-1.0785,-1.0789,-1.0782,-1.0799,-1.0758,-1.0767,-1.0765,-1.0778,-1.0738,-1.0655,-1.0636,-1.0626,-1.0602,-1.0744,-1.0744,-1.0744,-1.0744,-1.0871,-1.0857,-1.0889,-1.0897,-1.0901,-1.0868,-1.0912,-1.0892,-1.0867,-1.0864,-1.0838,-1.0804,-1.0794,-1.0781,-1.0767,-1.0745,-1.0919,-1.092,-1.092,-1.0957,-1.0942,-1.0985,-1.0958,-1.095,-1.0944,-1.0985,-1.0996,-1.0959,-1.0926,-1.0861,-1.0853,-1.0797,-1.078,-1.075,-1.0729,-1.0687,0,0]},{"header":{"parameterUnit":"m.s-1","parameterCategory":1,"la1":30.2992,"la2":30.254,"lo1":-89.0895,"lo2":-89.0443,"dy":0.0025,"dx":0.0025,"nx":19,"ny":19,"refTime":"2026-04-19T09:00:00:Z","depth":0,"parameterNumber":3,"parameterNumberName":"V-component_of_WINDS"},"data":[0,0,0,-9.1516,-9.152,-9.1686,-9.1687,-9.192,-9.1923,0,0,0,0,0,0,0,0,0,0,0,-9.1483,-9.1485,-9.1515,-9.152,-9.1686,-9.1687,-9.192,-9.1923,0,0,0,0,0,0,0,0,0,0,0,-9.1482,-9.1485,-9.1488,-9.1521,-9.1686,-9.1687,-9.1919,-9.1785,0,0,0,0,0,0,0,0,0,0,-9.162,-9.1607,-9.1484,-9.1488,-9.1522,-9.1686,-9.1687,-9.1778,-9.1794,-9.1855,0,-9.1918,0,-9.1925,-9.194,-9.1941,0,0,0,-9.1506,-9.1595,-9.1625,-9.1488,-9.1523,-9.1686,-9.1607,-9.1787,-9.1804,-9.1876,-9.1922,-9.1929,-9.1929,-9.1942,-9.1943,-9.2356,-9.2358,0,0,-9.1497,-9.1521,-9.1613,-9.1637,-9.1618,-9.1602,-9.1613,-9.1797,-9.1846,-9.1922,-9.1934,-9.1933,-9.1944,-9.1946,-9.2353,-9.2357,0,0,0,-9.148,-9.1515,-9.154,-9.1628,-9.1657,-9.1607,-9.1619,-9.1838,-9.1845,-9.1937,-9.1935,-9.1945,-9.1948,-9.2351,-9.2355,-9.2509,0,0,0,-9.1474,-9.1505,-9.1537,-9.1553,-9.1654,-9.1751,-9.1657,-9.1832,-9.1852,-9.1934,-9.1945,-9.1951,-9.2348,-9.2353,-9.2498,-9.2577,0,0,0,-9.1466,-9.1504,-9.1534,-9.1554,-9.1627,-9.1747,-9.1764,-9.1836,-9.1852,-9.1941,-9.1951,-9.2346,-9.2352,-9.2489,-9.2561,-9.2694,0,0,0,-9.1464,-9.1665,-9.1537,-9.1761,-9.1626,-9.1842,-9.1762,-9.1921,-9.2015,-9.1946,-9.2348,-9.2354,-9.2486,-9.2552,-9.2684,-9.2811,-9.2866,0,0,-9.1731,-9.1698,-9.1828,-9.1719,-9.1965,-9.1815,-9.2082,-9.2143,-9.2126,-9.2279,-9.2289,-9.2502,-9.256,-9.2692,-9.3165,-9.3209,0,0,0,-9.1921,-9.2015,-9.2075,-9.2169,-9.2224,-9.2277,-9.2296,-9.2319,-9.2448,-9.2212,-9.2584,-9.2618,-9.2694,-9.2754,-9.2791,-9.2855,-9.2383,-9.2382,-9.2381,-9.2332,-9.2306,-9.2519,-9.2513,-9.2604,-9.2624,-9.2694,-9.2728,-9.2669,-9.2758,-9.2803,-9.3094,-9.3165,-9.3193,-9.326,-9.2867,-9.2867,-9.2868,-9.2868,-9.2722,-9.2851,-9.2774,-9.2953,-9.2922,-9.307,-9.3096,-9.305,-9.3182,-9.3057,-9.3122,-9.2989,-9.3242,-9.3299,-9.288,-9.2878,-9.2876,-9.2875,-9.2874,-9.299,-9.3047,-9.3075,-9.321,-9.3316,-9.33,-9.3432,-9.3397,-9.3364,-9.3429,-9.3474,-9.3471,-9.3465,-9.3453,-9.3454,-9.3455,-9.3456,-9.3457,-9.3457,-9.3257,-9.3283,-9.3401,-9.3479,-9.3536,-9.3606,-9.3628,-9.3681,-9.3731,-9.3695,-9.3695,-9.3629,-9.3272,-9.3184,-9.3473,-9.347,-9.3468,-9.3466,-9.3465,-9.3663,-9.3567,-9.375,-9.3808,-9.3896,-9.4004,-9.3959,-9.4071,-9.411,-9.4176,-9.4096,-9.3838,-9.38,-9.377,-9.3697,-9.4101,-9.4101,-9.4101,-9.4101,-9.389,-9.3869,-9.4049,-9.4144,-9.4232,-9.4211,-9.4416,-9.4434,-9.4437,-9.4459,-9.4395,-9.4295,-9.4266,-9.4245,-9.4205,-9.4136,-9.4643,-9.4643,-9.4644,-9.4139,-9.4126,-9.4309,-9.4316,-9.4383,-9.444,-9.4632,-9.4741,-9.4723,-9.4665,-9.4476,-9.4453,-9.429,-9.4239,-9.4177,-9.4115,-9.3988,0,0]}]]